FENGYUN 3B

Last updated on Mon Jul 07 2025 00:02:20 GMT+0000 (Coordinated Universal Time)

1 37214U 10059A 25187.62864322 .00000045 00000+0 46892-4 0 9999 2 37214 99.0113 226.2706 0023211 86.0130 24.9371 14.14736381758569
UTC large
Height (km)
Speed (km/s)
/
Latitude / Longitude
Inclination (degrees)
Orbital Period (minutes)
Azimuth
Elevation
Range (km)
Doppler Factor

Next 0 passes for location: London (51.5072 / 0.1276)

Sorry there are no passes over London.